Time,TemperatureF,DewpointF,PressureIn,WindDirection,WindDirectionDegrees,WindSpeedMPH,WindSpeedGustMPH,Humidity,HourlyPrecipIn,Conditions,Clouds,dailyrainin,SoftwareType,DateUTC
2013-06-20 00:02:00,77.0,69.0,29.90,ESE,114,0.0,0.0,76,0.00,,,0.00,,2013-06-20 05:02:00,
2013-06-20 00:12:00,77.0,69.0,29.90,ESE,114,0.0,0.0,76,0.00,,,0.00,,2013-06-20 05:12:00,
2013-06-20 00:22:00,77.0,69.0,29.90,ESE,114,0.0,0.0,77,0.00,,,0.00,,2013-06-20 05:22:00,
2013-06-20 00:33:00,77.0,70.0,29.90,ESE,114,0.0,0.0,78,0.00,,,0.00,,2013-06-20 05:33:00,
2013-06-20 00:44:00,76.0,69.0,29.90,ESE,114,0.0,0.0,79,0.00,,,0.00,,2013-06-20 05:44:00,
2013-06-20 00:52:00,76.0,69.0,29.90,ESE,114,0.0,0.0,79,0.00,,,0.00,,2013-06-20 05:52:00,
2013-06-20 01:01:00,76.0,69.0,29.90,ESE,114,0.0,0.0,79,0.00,,,0.00,,2013-06-20 06:01:00,
2013-06-20 01:11:00,76.0,69.0,29.90,ESE,114,0.0,0.0,79,0.00,,,0.00,,2013-06-20 06:11:00,
2013-06-20 01:22:00,76.0,69.0,29.89,ESE,114,2.0,3.0,80,0.00,,,0.00,,2013-06-20 06:22:00,
2013-06-20 01:33:00,76.0,69.0,29.89,ESE,114,0.0,2.0,80,0.00,,,0.00,,2013-06-20 06:33:00,
2013-06-20 01:43:00,76.0,69.0,29.89,ESE,114,0.0,2.0,80,0.00,,,0.00,,2013-06-20 06:43:00,
2013-06-20 01:53:00,76.0,69.0,29.88,ESE,114,1.0,5.0,80,0.00,,,0.00,,2013-06-20 06:53:00,
2013-06-20 02:01:00,76.0,69.0,29.88,ESE,114,2.0,6.0,80,0.00,,,0.00,,2013-06-20 07:01:00,
2013-06-20 02:12:00,76.0,69.0,29.88,ESE,114,2.0,5.0,80,0.00,,,0.00,,2013-06-20 07:12:00,
2013-06-20 02:22:00,77.0,70.0,29.88,ESE,114,1.0,3.0,80,0.00,,,0.00,,2013-06-20 07:22:00,
2013-06-20 02:34:00,77.0,71.0,29.88,ESE,114,2.0,3.0,81,0.00,,,0.00,,2013-06-20 07:34:00,
2013-06-20 02:43:00,77.0,71.0,29.88,ESE,114,1.0,3.0,81,0.00,,,0.00,,2013-06-20 07:43:00,
2013-06-20 02:52:00,77.0,71.0,29.88,ESE,115,3.0,6.0,82,0.00,,,0.00,,2013-06-20 07:52:00,
2013-06-20 03:02:00,77.0,71.0,29.87,SE,137,8.0,12.0,82,0.00,,,0.00,,2013-06-20 08:02:00,
2013-06-20 03:11:00,78.0,72.0,29.86,SE,138,7.0,16.0,83,0.00,,,0.00,,2013-06-20 08:11:00,
2013-06-20 03:22:00,78.0,72.0,29.86,SE,142,9.0,15.0,82,0.00,,,0.00,,2013-06-20 08:22:00,
2013-06-20 03:34:00,78.0,72.0,29.86,SE,146,8.0,20.0,82,0.00,,,0.00,,2013-06-20 08:34:00,
2013-06-20 03:43:00,78.0,72.0,29.86,SE,138,7.0,18.0,82,0.00,,,0.00,,2013-06-20 08:43:00,
2013-06-20 03:52:00,78.0,72.0,29.86,SE,146,6.0,10.0,82,0.00,,,0.00,,2013-06-20 08:52:00,
2013-06-20 04:01:00,78.0,72.0,29.86,SE,146,7.0,13.0,83,0.00,,,0.00,,2013-06-20 09:01:00,
2013-06-20 04:11:00,78.0,72.0,29.86,SE,146,7.0,13.0,83,0.00,,,0.00,,2013-06-20 09:11:00,
2013-06-20 04:22:00,78.0,72.0,29.86,SE,146,8.0,12.0,83,0.00,,,0.00,,2013-06-20 09:22:00,
2013-06-20 04:33:00,77.0,72.0,29.86,SE,144,7.0,15.0,84,0.00,,,0.00,,2013-06-20 09:33:00,
2013-06-20 04:42:00,77.0,72.0,29.86,SE,140,7.0,13.0,84,0.00,,,0.00,,2013-06-20 09:42:00,
2013-06-20 04:52:00,77.0,72.0,29.86,SE,139,9.0,13.0,84,0.00,,,0.00,,2013-06-20 09:52:00,
2013-06-20 05:01:00,77.0,72.0,29.87,SE,142,5.0,10.0,85,0.00,,,0.00,,2013-06-20 10:01:00,
2013-06-20 05:11:00,77.0,72.0,29.87,SE,142,5.0,10.0,85,0.00,,,0.00,,2013-06-20 10:11:00,
2013-06-20 05:22:00,76.0,71.0,29.86,SE,146,6.0,12.0,85,0.00,,,0.00,,2013-06-20 10:22:00,
2013-06-20 05:33:00,76.0,71.0,29.87,SE,143,5.0,10.0,85,0.00,,,0.00,,2013-06-20 10:33:00,
2013-06-20 05:43:00,76.0,71.0,29.87,SE,146,6.0,12.0,85,0.00,,,0.00,,2013-06-20 10:43:00,
2013-06-20 05:53:00,76.0,71.0,29.88,SSE,149,6.0,10.0,85,0.00,,,0.00,,2013-06-20 10:53:00,
2013-06-20 06:02:00,76.0,71.0,29.88,SE,144,5.0,9.0,85,0.00,,,0.00,,2013-06-20 11:02:00,
2013-06-20 06:11:00,76.0,71.0,29.89,SSE,147,5.0,9.0,85,0.00,,,0.00,,2013-06-20 11:11:00,
2013-06-20 06:22:00,76.0,71.0,29.90,SSE,148,5.0,9.0,85,0.00,,,0.00,,2013-06-20 11:22:00,
2013-06-20 06:34:00,76.0,71.0,29.90,SSE,148,5.0,10.0,85,0.00,,,0.00,,2013-06-20 11:34:00,
2013-06-20 06:42:00,75.0,70.0,29.91,SSE,148,5.0,9.0,85,0.00,,,0.00,,2013-06-20 11:42:00,
2013-06-20 06:53:00,75.0,70.0,29.91,SSE,148,4.0,8.0,85,0.00,,,0.00,,2013-06-20 11:53:00,
2013-06-20 07:02:00,75.0,71.0,29.91,SE,146,3.0,8.0,86,0.00,,,0.00,,2013-06-20 12:02:00,
2013-06-20 07:11:00,75.0,71.0,29.92,SSE,147,6.0,8.0,86,0.00,,,0.00,,2013-06-20 12:11:00,
2013-06-20 07:22:00,75.0,71.0,29.92,SSE,148,4.0,7.0,86,0.00,,,0.00,,2013-06-20 12:22:00,
2013-06-20 07:34:00,75.0,70.0,29.92,SE,146,5.0,8.0,85,0.00,,,0.00,,2013-06-20 12:34:00,
2013-06-20 07:43:00,76.0,71.0,29.93,SE,144,6.0,10.0,85,0.00,,,0.00,,2013-06-20 12:43:00,
2013-06-20 07:53:00,76.0,71.0,29.93,SSE,158,7.0,15.0,85,0.00,,,0.00,,2013-06-20 12:53:00,
2013-06-20 08:02:00,76.0,71.0,29.93,SSE,158,7.0,15.0,85,0.00,,,0.00,,2013-06-20 13:02:00,
2013-06-20 08:11:00,77.0,72.0,29.93,SSE,163,6.0,12.0,84,0.00,,,0.00,,2013-06-20 13:11:00,
2013-06-20 08:22:00,77.0,72.0,29.93,SSE,163,6.0,12.0,84,0.00,,,0.00,,2013-06-20 13:22:00,
2013-06-20 08:33:00,78.0,72.0,29.94,SSE,153,6.0,15.0,83,0.00,,,0.00,,2013-06-20 13:33:00,
2013-06-20 08:42:00,78.0,72.0,29.95,South,173,8.0,14.0,81,0.00,,,0.00,,2013-06-20 13:42:00,
2013-06-20 08:53:00,78.0,71.0,29.95,SSE,157,8.0,12.0,80,0.00,,,0.00,,2013-06-20 13:53:00,
2013-06-20 09:01:00,79.0,72.0,29.95,SSE,156,6.0,18.0,79,0.00,,,0.00,,2013-06-20 14:01:00,
2013-06-20 09:11:00,79.0,72.0,29.96,South,180,8.0,15.0,78,0.00,,,0.00,,2013-06-20 14:11:00,
2013-06-20 09:22:00,80.0,72.0,29.96,SSE,158,8.0,15.0,76,0.00,,,0.00,,2013-06-20 14:22:00,
2013-06-20 09:32:00,81.0,72.0,29.96,SSW,201,9.0,14.0,74,0.00,,,0.00,,2013-06-20 14:32:00,
2013-06-20 09:42:00,81.0,72.0,29.96,SE,142,6.0,14.0,74,0.00,,,0.00,,2013-06-20 14:42:00,
2013-06-20 09:53:00,82.0,72.0,29.97,South,186,5.0,12.0,73,0.00,,,0.00,,2013-06-20 14:53:00,
2013-06-20 10:02:00,82.0,72.0,29.98,SSE,149,6.0,14.0,71,0.00,,,0.00,,2013-06-20 15:02:00,
2013-06-20 10:11:00,83.0,71.0,29.98,South,180,7.0,13.0,67,0.00,,,0.00,,2013-06-20 15:11:00,
2013-06-20 10:22:00,83.0,70.0,29.98,South,184,9.0,18.0,66,0.00,,,0.00,,2013-06-20 15:22:00,
2013-06-20 10:33:00,83.0,71.0,29.99,SSE,168,5.0,12.0,68,0.00,,,0.00,,2013-06-20 15:33:00,
2013-06-20 10:43:00,84.0,70.0,29.98,South,179,10.0,16.0,64,0.00,,,0.00,,2013-06-20 15:43:00,
2013-06-20 10:52:00,84.0,70.0,29.98,SSW,198,9.0,15.0,64,0.00,,,0.00,,2013-06-20 15:52:00,
2013-06-20 11:01:00,85.0,71.0,29.98,SSE,147,10.0,16.0,63,0.00,,,0.00,,2013-06-20 16:01:00,
2013-06-20 11:11:00,85.0,70.0,29.98,SSE,156,8.0,13.0,62,0.00,,,0.00,,2013-06-20 16:11:00,
2013-06-20 11:22:00,85.0,70.0,29.98,SE,142,10.0,16.0,62,0.00,,,0.00,,2013-06-20 16:22:00,
2013-06-20 11:33:00,86.0,70.0,29.98,SSE,167,9.0,26.0,60,0.00,,,0.00,,2013-06-20 16:33:00,
2013-06-20 11:42:00,86.0,71.0,29.98,SSE,168,11.0,21.0,61,0.00,,,0.00,,2013-06-20 16:42:00,
2013-06-20 11:52:00,86.0,71.0,29.98,SSE,165,7.0,20.0,62,0.00,,,0.00,,2013-06-20 16:52:00,
2013-06-20 12:01:00,87.0,71.0,29.98,SSE,150,9.0,15.0,60,0.00,,,0.00,,2013-06-20 17:01:00,
2013-06-20 12:11:00,87.0,71.0,29.97,SSE,159,10.0,15.0,59,0.00,,,0.00,,2013-06-20 17:11:00,
2013-06-20 12:22:00,88.0,72.0,29.97,SSE,153,10.0,20.0,59,0.00,,,0.00,,2013-06-20 17:22:00,
2013-06-20 12:32:00,88.0,72.0,29.97,South,186,10.0,20.0,60,0.00,,,0.00,,2013-06-20 17:32:00,
2013-06-20 12:43:00,88.0,72.0,29.97,SE,146,10.0,15.0,60,0.00,,,0.00,,2013-06-20 17:43:00,
2013-06-20 12:52:00,88.0,72.0,29.97,SSE,161,10.0,16.0,59,0.00,,,0.00,,2013-06-20 17:52:00,
2013-06-20 13:01:00,89.0,72.0,29.97,SSE,148,12.0,20.0,58,0.00,,,0.00,,2013-06-20 18:01:00,
2013-06-20 13:11:00,89.0,73.0,29.96,SSE,165,7.0,16.0,60,0.00,,,0.00,,2013-06-20 18:11:00,
2013-06-20 13:22:00,89.0,73.0,29.96,SSE,164,7.0,20.0,59,0.00,,,0.00,,2013-06-20 18:22:00,
2013-06-20 13:33:00,90.0,73.0,29.96,SSE,164,12.0,20.0,57,0.00,,,0.00,,2013-06-20 18:33:00,
2013-06-20 13:43:00,90.0,73.0,29.96,SSE,162,14.0,26.0,57,0.00,,,0.00,,2013-06-20 18:43:00,
2013-06-20 13:53:00,90.0,73.0,29.95,SSE,151,9.0,20.0,57,0.00,,,0.00,,2013-06-20 18:53:00,
2013-06-20 14:01:00,90.0,73.0,29.95,SE,141,10.0,20.0,57,0.00,,,0.00,,2013-06-20 19:01:00,
2013-06-20 14:11:00,91.0,74.0,29.95,SE,140,12.0,20.0,58,0.00,,,0.00,,2013-06-20 19:11:00,
2013-06-20 14:22:00,91.0,74.0,29.94,SE,130,9.0,20.0,57,0.00,,,0.00,,2013-06-20 19:22:00,
2013-06-20 14:34:00,91.0,74.0,29.94,South,172,7.0,12.0,58,0.00,,,0.00,,2013-06-20 19:34:00,
2013-06-20 14:43:00,92.0,75.0,29.93,SE,129,10.0,15.0,57,0.00,,,0.00,,2013-06-20 19:43:00,
2013-06-20 14:52:00,92.0,75.0,29.93,South,170,8.0,18.0,58,0.00,,,0.00,,2013-06-20 19:52:00,
2013-06-20 15:02:00,92.0,74.0,29.93,SSE,151,13.0,21.0,56,0.00,,,0.00,,2013-06-20 20:02:00,
2013-06-20 15:11:00,92.0,73.0,29.93,SE,142,11.0,16.0,55,0.00,,,0.00,,2013-06-20 20:11:00,
2013-06-20 15:22:00,92.0,74.0,29.92,SSE,154,10.0,21.0,56,0.00,,,0.00,,2013-06-20 20:22:00,
2013-06-20 15:33:00,92.0,73.0,29.92,SSE,155,12.0,20.0,55,0.00,,,0.00,,2013-06-20 20:33:00,
2013-06-20 15:42:00,92.0,73.0,29.92,SE,136,12.0,20.0,54,0.00,,,0.00,,2013-06-20 20:42:00,
2013-06-20 15:52:00,92.0,72.0,29.92,SE,130,10.0,20.0,52,0.00,,,0.00,,2013-06-20 20:52:00,
2013-06-20 16:01:00,93.0,72.0,29.92,SE,136,10.0,20.0,51,0.00,,,0.00,,2013-06-20 21:01:00,
2013-06-20 19:11:00,92.0,69.0,29.88,SSE,151,9.0,20.0,48,0.00,,,0.00,,2013-06-21 00:11:00,